Total_Precipitation_Accumulation
0.01 0.02 0.02 0.05 0.16 0.31 0.42 0.38 0.34 0.43 0.45 0.40 0.43 0.45 0.50 0.64 1.15 2.07 1.22 0.64 0.46 0.43 0.43 0.31 0.36 0.44 0.52 0.58 0.66 0.72 0.70 0.69 0.65 0.63 0.65 0.74 0.82 0.91 0.96 1.01 1.46 1.63 1.74 1.77 1.82 1.97 2.05 1.96 2.05
0.02 0.03 0.04 0.09 0.24 0.48 0.51 0.39 0.42 0.44 0.50 0.48 0.50 0.51 0.54 0.60 0.54 0.58 0.62 0.58 0.43 0.39 0.40 0.29 0.37 0.48 0.52 0.57 0.63 0.75 0.72 0.71 0.68 0.65 0.68 0.75 0.83 0.93 1.07 1.19 1.43 1.71 1.89 2.02 2.20 2.31 2.24 2.04 2.02
0.03 0.03 0.07 0.14 0.22 0.37 0.49 0.46 0.48 0.45 0.44 0.56 0.67 0.77 0.80 0.74 0.66 0.62 0.56 0.45 0.37 0.31 0.33 0.39 0.47 0.54 0.59 0.60 0.62 0.70 0.76 0.79 0.79 0.82 0.77 0.81 0.86 0.88 0.99 1.18 1.33 1.48 1.63 1.80 1.96 2.04 2.15 1.99 1.95
0.04 0.05 0.09 0.14 0.19 0.25 0.41 0.51 0.52 0.54 0.50 0.48 0.60 0.98 0.92 0.70 0.70 0.71 0.53 0.44 0.42 0.36 0.31 0.40 0.54 0.58 0.63 0.68 0.67 0.66 0.72 0.85 0.97 1.05 0.99 0.95 0.97 1.00 1.07 1.24 1.31 1.38 1.43 1.50 1.63 1.87 2.06 2.08 1.97
0.04 0.08 0.16 0.19 0.19 0.23 0.34 0.47 0.49 0.52 0.60 0.58 0.66 1.07 1.05 0.85 0.82 0.93 0.82 0.62 0.59 0.57 0.53 0.49 0.57 0.61 0.66 0.73 0.75 0.78 0.79 0.89 1.05 1.13 1.16 1.15 1.11 1.08 1.17 1.33 1.34 1.35 1.39 1.46 1.48 1.57 1.71 2.03 2.11
0.05 0.09 0.22 0.20 0.17 0.26 0.36 0.48 0.49 0.53 0.61 0.72 0.90 1.28 1.54 1.39 1.25 1.33 1.31 0.94 0.81 0.73 0.69 0.70 0.67 0.62 0.71 0.82 0.81 0.86 0.93 0.99 1.11 1.21 1.33 1.29 1.19 1.17 1.28 1.43 1.48 1.52 1.57 1.60 1.47 1.44 1.55 1.81 2.02
0.05 0.12 0.21 0.16 0.19 0.31 0.41 0.53 0.54 0.62 0.82 0.92 1.09 1.61 1.80 1.71 1.64 1.48 1.58 1.34 1.00 0.95 0.94 0.94 0.80 0.77 0.84 0.98 0.96 0.96 1.00 1.07 1.19 1.39 1.51 1.46 1.37 1.38 1.44 1.50 1.57 1.66 1.72 1.77 1.73 1.66 1.67 1.77 1.96
0.06 0.13 0.16 0.17 0.21 0.35 0.49 0.58 0.60 0.70 0.96 1.09 1.17 1.69 1.95 1.85 1.60 1.52 1.60 1.64 1.39 1.32 1.30 1.23 1.22 1.20 1.11 1.15 1.30 1.25 1.22 1.21 1.22 1.34 1.58 1.62 1.54 1.50 1.56 1.52 1.65 1.78 1.91 1.99 2.09 2.24 2.20 2.06 1.97
0.05 0.14 0.15 0.12 0.17 0.36 0.51 0.64 0.70 0.73 0.94 1.13 1.07 1.25 1.69 1.49 1.63 1.92 1.83 1.90 1.83 1.74 1.68 1.47 1.53 1.55 1.42 1.38 1.35 1.51 1.49 1.43 1.37 1.43 1.62 1.70 1.79 1.80 1.79 1.73 2.01 2.09 2.29 2.48 2.60 2.66 2.46 2.30 2.13
0.04 0.13 0.13 0.10 0.14 0.30 0.47 0.64 0.79 0.86 0.92 1.11 1.16 1.17 1.42 1.56 1.62 1.92 2.28 2.12 2.10 1.94 1.86 1.78 1.64 1.56 1.54 1.45 1.56 1.74 1.70 1.72 1.59 1.79 1.80 1.96 2.40 2.58 2.24 2.48 2.66 2.73 2.85 2.92 2.79 2.74 2.59 2.29 1.92
0.05 0.09 0.11 0.12 0.17 0.30 0.47 0.60 0.64 0.80 0.96 1.08 1.26 1.33 1.46 1.73 1.98 2.02 2.44 2.43 2.37 2.27 2.09 2.13 1.99 1.83 2.01 2.11 2.01 2.01 2.09 2.23 2.10 2.26 2.33 2.52 2.75 2.81 2.81 2.97 2.97 3.09 3.18 3.08 3.01 2.84 2.51 2.19 1.98
0.04 0.07 0.09 0.16 0.20 0.28 0.41 0.50 0.66 0.86 1.24 1.29 1.59 1.89 1.96 1.91 2.22 2.26 2.57 2.60 2.73 2.90 2.71 2.59 2.58 2.45 2.56 2.81 2.61 2.32 2.24 2.34 2.41 2.66 2.61 2.93 3.11 3.14 3.15 3.24 3.24 3.25 3.29 3.30 3.06 2.95 2.75 2.54 2.27
0.06 0.08 0.09 0.14 0.24 0.33 0.42 0.56 0.75 0.99 1.17 1.28 1.69 2.12 2.24 2.09 2.02 2.25 2.91 2.77 2.83 3.10 3.24 3.00 2.97 2.90 3.07 3.26 3.12 2.87 2.83 2.61 2.58 2.92 3.01 3.17 3.33 3.34 3.47 3.46 3.47 3.23 3.18 3.15 3.05 2.90 2.97 2.87 2.62
0.08 0.09 0.12 0.13 0.20 0.31 0.45 0.56 0.75 0.96 0.89 1.04 1.37 1.71 1.90 2.07 2.10 2.28 2.67 2.81 2.77 3.01 3.31 3.43 3.41 3.33 3.15 3.25 3.31 3.09 2.83 2.95 2.84 2.88 3.04 3.11 3.32 3.62 3.72 3.69 3.68 3.58 3.45 3.48 3.31 3.11 3.28 3.19 3.07
0.06 0.10 0.14 0.16 0.20 0.31 0.42 0.63 0.86 1.09 1.04 1.13 1.33 1.47 1.77 2.01 2.35 2.59 2.73 2.78 2.78 2.91 3.13 3.32 3.43 3.58 3.40 3.39 3.42 3.23 3.05 3.07 3.16 3.22 3.38 3.28 3.28 3.63 3.82 3.98 3.90 3.91 3.79 3.76 3.70 3.65 3.74 3.44 3.25
0.08 0.13 0.23 0.25 0.22 0.25 0.41 0.82 1.08 1.12 1.19 1.24 1.31 1.42 1.59 1.94 2.26 2.43 2.41 2.49 2.48 2.54 2.85 3.15 3.29 3.49 3.69 3.74 3.86 3.61 3.63 3.69 3.67 3.52 3.46 3.37 3.39 3.63 4.00 4.12 4.14 4.24 4.15 4.22 4.28 4.18 4.07 3.94 3.66
0.14 0.18 0.25 0.34 0.27 0.25 0.44 0.88 1.12 1.07 1.22 1.30 1.30 1.32 1.41 1.68 1.95 2.12 2.20 2.27 2.29 2.30 2.81 3.14 3.46 3.83 4.05 4.25 4.48 4.44 4.52 4.39 4.20 4.11 3.96 4.00 4.13 4.17 4.36 4.45 4.53 4.61 4.68 4.72 4.49 4.68 4.45 4.35 4.14
0.21 0.22 0.26 0.28 0.28 0.29 0.45 0.74 0.93 1.05 1.19 1.32 1.33 1.31 1.28 1.53 1.77 1.98 2.19 2.38 2.31 2.41 2.84 3.23 3.52 4.11 4.64 4.74 4.93 5.04 5.28 5.22 5.06 5.09 4.95 4.69 4.79 4.89 5.06 4.96 5.04 5.11 5.21 5.08 5.06 5.18 4.95 4.58 4.51
0.20 0.25 0.31 0.27 0.25 0.33 0.45 0.66 0.90 1.03 1.24 1.43 1.42 1.42 1.51 1.61 1.87 2.10 2.27 2.49 2.79 3.03 3.22 3.46 3.71 4.09 4.39 4.82 5.19 5.38 5.57 5.77 5.85 5.82 5.80 5.78 5.73 5.87 5.96 5.67 5.73 5.67 5.55 5.32 5.30 5.24 5.00 4.68 4.64
0.14 0.21 0.29 0.31 0.29 0.33 0.48 0.69 0.92 1.03 1.17 1.40 1.47 1.54 1.58 1.70 1.89 2.24 2.61 3.03 3.27 3.46 3.53 3.78 4.14 4.45 4.64 5.03 5.57 6.08 6.30 6.37 6.38 6.41 6.56 6.60 6.57 6.74 6.80 6.79 6.54 6.37 6.14 5.65 5.29 5.16 4.91 4.53 4.66
0.12 0.17 0.20 0.28 0.35 0.41 0.60 1.03 1.25 1.24 1.36 1.50 1.53 1.68 1.71 1.79 2.08 2.38 2.86 3.23 3.33 3.44 3.56 3.74 4.31 4.82 5.27 5.71 6.29 6.80 7.15 7.14 6.98 6.65 6.75 6.90 6.70 6.74 7.00 7.09 6.87 6.52 5.97 5.40 5.29 5.27 5.08 4.79 4.70
0.13 0.15 0.17 0.24 0.38 0.54 0.60 1.26 1.62 1.69 1.71 1.63 1.66 1.79 1.78 1.81 2.05 2.40 2.70 3.01 3.19 3.31 3.60 3.88 4.32 5.02 5.56 5.86 6.49 7.17 7.42 7.63 7.65 7.44 7.15 6.95 6.68 6.52 6.48 6.41 6.08 5.73 5.36 5.06 4.92 5.02 4.91 4.87 4.61
0.12 0.12 0.18 0.23 0.31 0.51 0.55 1.03 1.79 1.93 2.04 1.87 1.84 1.89 1.74 1.69 1.86 2.22 2.47 2.79 3.22 3.33 3.45 3.66 4.20 4.84 5.60 6.26 6.75 7.35 7.81 8.03 7.96 7.56 7.09 6.54 6.18 5.73 5.30 5.01 4.86 4.82 4.67 4.49 4.37 4.43 4.33 4.09 3.96
0.11 0.16 0.27 0.32 0.43 0.70 0.66 1.00 1.91 2.21 2.37 2.45 2.14 1.91 1.73 1.67 1.74 1.92 2.22 2.53 2.87 2.94 3.18 3.46 3.90 4.62 5.35 5.96 6.56 7.07 7.46 7.57 7.27 6.73 6.20 5.81 5.41 4.88 4.34 4.10 4.00 3.91 3.76 3.58 3.50 3.52 3.52 3.56 3.60
0.14 0.31 0.64 0.86 0.96 0.93 0.71 1.05 1.89 2.09 1.94 2.05 2.10 2.13 1.90 1.68 1.75 1.96 2.17 2.50 2.66 2.72 2.97 3.32 3.86 4.52 4.93 5.40 5.90 6.24 6.46 6.59 6.56 6.26 5.79 5.40 4.86 4.38 3.92 3.52 3.35 3.08 2.92 2.85 2.93 2.95 2.91 3.03 3.13
0.15 0.31 0.80 1.11 1.11 1.09 1.08 1.56 2.22 2.05 1.71 1.72 1.85 2.01 1.83 1.74 1.91 2.22 2.33 2.51 2.69 2.71 2.89 3.26 3.72 4.13 4.34 4.53 4.93 5.28 5.45 5.49 5.37 5.20 4.80 4.49 4.11 3.78 3.50 3.11 2.77 2.53 2.39 2.31 2.50 2.55 2.54 2.63 2.74
0.20 0.27 0.43 0.65 0.72 1.09 1.59 2.13 2.72 2.53 1.98 1.78 1.81 1.85 1.90 1.87 1.95 2.24 2.39 2.51 2.62 2.65 2.84 3.04 3.31 3.49 3.68 3.83 4.05 4.29 4.35 4.25 4.10 3.93 3.68 3.48 3.27 2.93 2.79 2.60 2.43 2.29 2.23 2.23 2.32 2.32 2.36 2.50 2.55
0.21 0.31 0.45 0.73 1.08 1.47 1.81 2.57 3.40 3.25 2.57 2.11 1.98 1.93 1.93 1.91 1.95 2.14 2.23 2.36 2.44 2.42 2.53 2.61 2.82 2.98 3.16 3.26 3.30 3.23 3.29 3.21 3.04 2.85 2.74 2.56 2.37 2.27 2.27 2.21 2.23 2.17 2.10 2.15 2.25 2.12 2.14 2.25 2.26
0.28 0.37 0.56 0.73 0.84 1.43 2.12 3.04 3.25 3.30 2.98 2.56 2.13 1.89 1.86 1.86 1.85 1.93 2.01 2.04 2.07 2.07 2.14 2.29 2.45 2.64 2.74 2.77 2.85 2.80 2.68 2.48 2.36 2.21 2.10 2.02 1.95 1.94 1.94 1.97 2.00 2.01 2.00 2.04 2.03 1.87 1.90 1.97 2.13
0.28 0.40 0.61 0.97 1.01 1.19 1.85 3.07 3.09 3.31 3.21 2.87 2.46 2.15 2.03 1.95 1.82 1.73 1.75 1.77 1.81 1.87 1.99 2.13 2.15 2.25 2.32 2.41 2.47 2.50 2.41 2.23 2.04 1.93 1.84 1.82 1.82 1.80 1.83 1.85 1.82 1.85 1.97 2.05 1.97 1.81 1.76 1.90 2.04